Regional Weather Roundup
Issued by NWS Newport/Morehead, NC

Current Version | Previous Version | Text Only | Print | Product List | Glossary On
Versions: 1 2 3 4 5 6 7 8 9 10 11 12 13 14 15 16 17 18 19 20 21 22 23 24 25 26 27 28 29 30 31 32 33 34 35 36 37 38 39 40 41 42 43 44 45 46 47 48 49 50
000 ASUS42 KMHX 012110 RWRMHX WEATHER ROUNDUP FOR EASTERN NORTH CAROLINA NATIONAL WEATHER SERVICE NEWPORT/MOREHEAD CITY NC 500 PM EDT WED OCT 01 2014 NOTE: "FAIR" INDICATES FEW OR NO CLOUDS BELOW 12,000 FEET WITH NO SIGNIFICANT WEATHER AND/OR OBSTRUCTIONS TO VISIBILITY NCZ015>017-031-032-045>047-102-103-012200- NORTH COAST CITY SKY/WX TMP DP RH WIND PRES REMARKS EDENTON MOSUNNY 77 63 62 N3 29.97S ELIZABETH CITY SUNNY 75 63 66 NE10 29.97S KITTY HAWK CLEAR 72 64 75 NE8G17 29.97R MANTEO MOSUNNY 72 64 73 N10 29.98S $$ NCZ045>047-081-094-103-104-012200- CENTRAL COAST CITY SKY/WX TMP DP RH WIND PRES REMARKS FRISCO SUNNY 72 64 76 NE8G20 29.96S SWANQUARTER N/A 81 N/A N/A N3G9 29.91S $$ NCZ095-097-098-100-101-012200- SOUTHERN COAST CITY SKY/WX TMP DP RH WIND PRES REMARKS BEAUFORT SUNNY 79 64 60 N8 29.96R CEDAR ISLAND N/A 75 N/A N/A E2 30.00S JACKSONVILLE MOSUNNY 80 62 54 N6 29.96S NEWPORT NOT AVBL PINEY ISLAND CLEAR 77 65 66 E9 29.96S WILMINGTON MOSUNNY 79 66 64 E6 29.96S $$ NCZ011>013-027>030-043-044-078>080-089-090>093-098-012200- COASTAL PLAIN CITY SKY/WX TMP DP RH WIND PRES REMARKS AHOSKIE SUNNY 74 64 68 CALM 29.98S CLINTON MOSUNNY 79 67 66 N3 29.98S ELIZABETHTOWN SUNNY 81 63 54 CALM 29.96F GOLDSBORO MOSUNNY 78 67 70 CALM 29.96S GREENVILLE SUNNY 79 63 57 N6 30.00S HAVELOCK MOSUNNY 80 63 55 NE7 29.97S KENANSVILLE PTSUNNY 79 62 56 N6 29.98S KINSTON SUNNY 79 63 57 N6 29.99R NEW BERN MOSUNNY 80 63 55 N3 29.98R RICHLANDS MOSUNNY 81 63 54 N6 29.97R ROANOKE RAPIDS NOT AVBL ROCKY MOUNT PTSUNNY 80 63 55 NE6 29.99S WASHINGTON SUNNY 77 63 61 N3 29.98S WHITEVILLE SUNNY 81 64 57 CALM 29.96S $$ AMZ130-135-150-152-154-156-158-170-250-252-270-ANZ085-086-088-633-658-670-012200- MARINE OBSERVATIONS STATION/POSITION TIME TEMP WIND PRES WAVE SWELL AIR SEA DIR/SP/G HT/PER HT/PER (UTC) (F) (DEG/KT/KT) (MB) (FT/S) (FT/S) CHESAPEAKE LIGHT 2000 70 10/ 8/ 9 1015.8 BUOY 44014 2100 70 71 10/ 16/ 17 1014.1 4/ 6 2/13 DUCK 2100 70 73 10/ 13/ 15 1014.3 2E DUCK 2000 N/A 3/ 8 OREGON INLET 2100 72 73 360/ 10/ 14 1014.8 BUOY 44095 2000 73 N/A 4/ 7 2/13 20E OREGON INLET NOT AVBL HATTERAS CG 2100 72 74 20/ 14/ 19 1014.9 DIAMOND BUOY 2100 72 360/ 17/ 19 1014.2 3/ 7 2/ 7 CAPE LOOKOUT 2000 75 50/ 8/ 9 1014.4 BEAUFORT LAB 2100 78 75 360/ 7/ 10 1014.0 30 SE NEW RIVER 2000 75 80 30/ 8/ 8 1014.1 5 SE WRIGHTSVILL 2000 71 76 110/ 6/ 8 N/A BUOY 41002 2044 80 81 360/ 12/ 14 1012.3 4/ 6 3/ 6 BUOY 41004 2100 77 81 30/ 8/ 12 1014.5 2/ 7 2/ 7 $$

USA.gov is the U.S. government's official web portal to all federal, state and local government web resources and services.